Regional Weather Roundup
Issued by NWS

Home | Current Version | Previous Version | Graphics & Text | Print | Product List | Glossary On
Versions: 1 2 3 4 5 6 7 8 9 10 11 12 13 14 15 16 17 18 19 20 21 22 23 24 25 26 27 28 29 30 31 32 33 34 35 36 37 38 39 40 41 42 43 44 45 46 47 48 49 50
424
ASUS43 KMKX 311121
RWRWI

WISCONSIN REGIONAL WEATHER ROUNDUP
NATIONAL WEATHER SERVICE MILWAUKEE/SULLIVAN WI
600 AM CDT TUE MAY 31 2016

NOTE: "FAIR" INDICATES FEW OR NO CLOUDS BELOW 12,000 FEET WITH NO
SIGNIFICANT WEATHER AND/OR OBSTRUCTIONS TO VISIBILITY.

WIZ001-002-006>008-014>016-023>028-311200-
NORTHWEST WISCONSIN

CITY           SKY/WX    TMP DP  RH WIND       PRES   REMARKS
SUPERIOR ARPT  CLOUDY    44  41  89 NE16G25   29.99F
ASHLAND        CLOUDY    49  45  86 NE12      30.00F
HAYWARD        CLOUDY    57  50  77 NE8       29.92F
SIREN          CLOUDY    61  55  80 NW6       29.90R
CUMBERLAND     CLOUDY    61  54  77 SE6       29.91R
RICE LAKE      CLOUDY    64  55  73 SE6       29.93R
CHETEK         CLOUDY    62  58  84 S3        29.92R
LADYSMITH      DRIZZLE   61  56  83 E8        29.95S
EAU CLAIRE     MOCLDY    63  59  87 CALM      29.90R
MENOMONIE      CLOUDY    64  57  77 E5        29.91S
NEW RICHMOND   CLOUDY    64  55  71 SE6       29.88F
OSCEOLA        CLOUDY    65  55  70 SE7       29.90F
$$

WIZ003>005-009-010-017-018-311200-
NORTH CENTRAL WISCONSIN

CITY           SKY/WX    TMP DP  RH WIND       PRES   REMARKS
MANITOWISH WTR NOT AVBL
ARBOR VITAE    PTCLDY    55  50  85 E10       30.04S
WOODRUFF       PTCLDY    55  50  85 E10       30.04S
RHINELANDER    CLOUDY    52  47  83 E10       30.06R
EAGLE RIVER      N/A     50  44  80 E9        30.06S
LAND O LAKES   CLOUDY    48  43  82 E7        30.08S
PHILLIPS       CLOUDY    57  50  79 E6        29.98F
TOMAHAWK       CLOUDY    56  49  78 E6        30.03S
MEDFORD        MOCLDY    59  56  88 E10       29.95R
MERRILL        CLOUDY    56  51  86 E10       30.01F
$$

WIZ029-030-035-036-043>047-311200-
CENTRAL WISCONSIN

CITY           SKY/WX    TMP DP  RH WIND       PRES   REMARKS
WAUSAU         MOCLDY    58  50  75 E9        30.01R
MOSINEE        PTCLDY    55  54  94 E7        30.03R
MARSHFIELD     CLOUDY    62  54  74 E9        29.96S
STEVENS POINT  MOCLDY    55  52  89 NE9       30.02R
WAUPACA        CLOUDY    60  58  92 NE10      30.03R
WAUTOMA        CLOUDY   N/A N/A N/A NE6       30.00S
WISC RAPIDS    CLOUDY    62  54  74 E8        30.00R
CAMP DOUGLAS   NOT AVBL
$$

WIZ011>013-019>022-031-037>040-048>050-311200-
NORTHEAST WISCONSIN

CITY           SKY/WX    TMP DP  RH WIND       PRES   REMARKS
ANTIGO         CLOUDY    50  47  89 E16       30.04F
SHAWANO        CLOUDY    57  49  76 NE13      30.08R
OCONTO         PTCLDY    51  51  97 N5        30.09R
STURGEON BAY   NOT AVBL
GREEN BAY      PTCLDY    57  53  86 NE12      30.07R
MANITOWOC      CLEAR     53  48  83 N8        30.08R
APPLETON       MOCLDY    57  52  82 E13       30.03S
CLINTONVILLE   CLOUDY    54  48  82 E8        30.05S
OSHKOSH        CLOUDY    64  59  83 NE7       30.02R
$$

WIZ032>034-041-042-053>061-311200-
SOUTHWEST WISCONSIN

CITY           SKY/WX    TMP DP  RH WIND       PRES   REMARKS
LA CROSSE      CLOUDY    64  59  83 SE7       29.92R
SPARTA         CLOUDY    60  60  99 E5        29.96R
VIROQUA        CLOUDY    61  59  94 E10       29.96R
BOSCOBEL       NOT AVBL
PRAIRIE DU CHI CLOUDY    60  59  96 CALM      29.94S
PLATTEVILLE    CLEAR     64  59  85 E10       29.96S
$$

WIZ056-057-062-063-064-067-068-311200-
SOUTH CENTRAL WISCONSIN

CITY           SKY/WX    TMP DP  RH WIND       PRES   REMARKS
REEDSBURG      CLOUDY    61  56  82 CALM      29.97S
BARABOO/DELLS  CLOUDY    64  54  71 SE6       29.98F
LONE ROCK      CLEAR     62  59  90 E3        29.97F
MINERAL POINT  PTCLDY    64  57  77 E9        29.97S
MADISON        CLOUDY    63  58  83 SE5       30.00S
MIDDLETON      CLOUDY    66  61  82 E7        30.00F
WATERTOWN      CLOUDY    61  61 100 CALM      30.01S
MONROE         PTCLDY    63  55  77 NE8       29.98F
JANESVILLE     CLOUDY    63  57  82 NE7       29.98F
$$

WIZ051-052-058>065-066-070>072-311200-
SOUTHEAST WISCONSIN

CITY           SKY/WX    TMP DP  RH WIND       PRES   REMARKS
MILWAUKEE      CLOUDY    66  54  65 N6        30.02R
WAUKESHA       MOCLDY    59  55  88 CALM      30.04S
MILWAUKEE/TIMM CLOUDY    64  52  63 CALM      30.03F
RACINE         CLOUDY    63  55  75 CALM      30.03R
BURLINGTON     PTCLDY    60  57  88 N3        30.02R
KENOSHA        CLOUDY    59  53  80 E3        30.01R
FOND DU LAC    CLOUDY    64  58  80 NE5       30.02R
SHEBOYGAN      PTCLDY    57  53  86 NE10      30.05S
WEST BEND      DRIZZLE   61  57  88 E3        30.02F
JUNEAU         CLOUDY    62  57  85 E5        30.02F
$$

LSZ147-162-311200-
LAKE SUPERIOR

STATION/POSITION TIME  TEMP    WIND        PRES    WAVE
                       AIR SEA DIR/SP/G            HT/PER
                 (UTC) (F)     (DEG/KT/KT) (MB)    (FT/S)
W MID LAKE BUOY  1050   41 38   70/ 17/ 21 1018.7F   3/ 4
DEVILS ISLAND    1100   44      70/ 19/ 22 1018.0F
SAXON HARBOR     1000   52      CALM  /  3 1015.9
$$

LMZ867-665-643>646-311200-
LAKE MICHIGAN

STATION/POSITION TIME  TEMP    WIND        PRES    WAVE
                       AIR SEA DIR/SP/G            HT/PER
                 (UTC) (F)     (DEG/KT/KT) (MB)    (FT/S)
CHAMBERS ISLAND  1040   52      10/ 12/ 14 1019.0R
N MID LAKE BUOY  1050   49 48   30/ 12/ 14 1018.4R   2/ 3
NORTHPORT PIER   1000   52      10/  6/  8 1018.3R
KEWAUNEE LAKESHO 1000   51      20/ 12/ 18 1016.7R
SHEBOYGAN LAKESH 1100   55     360/ 17/ 18 1018.0R
PORT WASHINGTON  1000   65     280/  7/ 15 1017.3R
S MID LAKE BUOY  1050   59 55  110/  4/  4 1015.9R   0
KENOSHA   LAKESH 1100   62      CALM  /  2 1016.3R
$$

TC  - TEMPERATURE IN CELSIUS
VSB - VISIBILITY IN STATUTE MILES
WCI - WIND CHILL INDEX
HX  - HEAT INDEX





USA.gov is the U.S. government's official web portal to all federal, state and local government web resources and services.